Time,TemperatureF,DewpointF,PressureIn,WindDirection,WindDirectionDegrees,WindSpeedMPH,WindSpeedGustMPH,Humidity,HourlyPrecipIn,Conditions,Clouds,dailyrainin,SoftwareType,DateUTC
2013-01-03 00:11:00,0.0,-6.0,30.28,NE,35,2.0,4.0,76,0.00,,,0.00,weatherlink.com 1.10,2013-01-03 05:11:00,
2013-01-03 00:25:00,-0.9,-7.0,30.28,NE,44,1.0,5.0,76,0.00,,,0.00,weatherlink.com 1.10,2013-01-03 05:25:00,
2013-01-03 00:40:00,-1.5,-7.0,30.27,North,355,1.0,4.0,76,0.00,,,0.00,weatherlink.com 1.10,2013-01-03 05:40:00,
2013-01-03 00:55:00,-1.8,-8.0,30.28,NE,36,1.0,4.0,76,0.00,,,0.00,weatherlink.com 1.10,2013-01-03 05:55:00,
2013-01-03 01:10:00,-1.5,-7.0,30.29,NE,36,3.0,3.0,76,0.00,,,0.00,weatherlink.com 1.10,2013-01-03 06:10:00,
2013-01-03 01:25:00,-1.0,-7.0,30.29,NNE,21,0.0,4.0,76,0.00,,,0.00,weatherlink.com 1.10,2013-01-03 06:25:00,
2013-01-03 01:40:00,-0.9,-7.0,30.29,NNE,29,0.0,2.0,75,0.00,,,0.00,weatherlink.com 1.10,2013-01-03 06:40:00,
2013-01-03 01:56:00,-1.2,-7.0,30.29,NW,305,0.0,2.0,75,0.00,,,0.00,weatherlink.com 1.10,2013-01-03 06:56:00,
2013-01-03 02:11:00,-1.6,-8.0,30.29,NNW,334,0.0,1.0,75,0.00,,,0.00,weatherlink.com 1.10,2013-01-03 07:11:00,
2013-01-03 02:26:00,-1.9,-8.0,30.28,WNW,302,0.0,0.0,76,0.00,,,0.00,weatherlink.com 1.10,2013-01-03 07:26:00,
2013-01-03 02:41:00,-1.9,-8.0,30.29,WNW,302,0.0,0.0,76,0.00,,,0.00,weatherlink.com 1.10,2013-01-03 07:41:00,
2013-01-03 02:56:00,-1.7,-7.0,30.28,WNW,302,0.0,0.0,77,0.00,,,0.00,weatherlink.com 1.10,2013-01-03 07:56:00,
2013-01-03 03:11:00,-2.5,-8.0,30.28,West,274,0.0,0.0,79,0.00,,,0.00,weatherlink.com 1.10,2013-01-03 08:11:00,
2013-01-03 03:26:00,-2.5,-8.0,30.27,West,261,0.0,1.0,79,0.00,,,0.00,weatherlink.com 1.10,2013-01-03 08:26:00,
2013-01-03 03:41:00,-2.8,-8.0,30.27,West,263,0.0,1.0,79,0.00,,,0.00,weatherlink.com 1.10,2013-01-03 08:41:00,
2013-01-03 03:56:00,-3.3,-8.0,30.25,West,259,0.0,1.0,79,0.00,,,0.00,weatherlink.com 1.10,2013-01-03 08:56:00,
2013-01-03 04:11:00,-3.6,-8.0,30.25,West,261,0.0,1.0,81,0.00,,,0.00,weatherlink.com 1.10,2013-01-03 09:11:00,
2013-01-03 04:26:00,-4.0,-8.0,30.25,West,261,0.0,1.0,81,0.00,,,0.00,weatherlink.com 1.10,2013-01-03 09:26:00,
2013-01-03 04:41:00,-4.2,-8.0,30.25,West,262,0.0,1.0,82,0.00,,,0.00,weatherlink.com 1.10,2013-01-03 09:41:00,
2013-01-03 04:56:00,-4.3,-8.0,30.25,WSW,251,0.0,1.0,82,0.00,,,0.00,weatherlink.com 1.10,2013-01-03 09:56:00,
2013-01-03 05:11:00,-4.3,-8.0,30.25,WSW,251,0.0,0.0,82,0.00,,,0.00,weatherlink.com 1.10,2013-01-03 10:11:00,
2013-01-03 05:27:00,-4.5,-9.0,30.25,WSW,240,0.0,0.0,81,0.00,,,0.00,weatherlink.com 1.10,2013-01-03 10:27:00,
2013-01-03 05:42:00,-5.8,-10.0,30.26,WSW,239,0.0,1.0,83,0.00,,,0.00,weatherlink.com 1.10,2013-01-03 10:42:00,
2013-01-03 05:57:00,-6.8,-10.0,30.25,North,359,0.0,0.0,84,0.00,,,0.00,weatherlink.com 1.10,2013-01-03 10:57:00,
2013-01-03 06:12:00,-7.3,-11.0,30.26,WSW,244,0.0,0.0,85,0.00,,,0.00,weatherlink.com 1.10,2013-01-03 11:12:00,
2013-01-03 06:27:00,-7.4,-11.0,30.26,WSW,244,0.0,1.0,86,0.00,,,0.00,weatherlink.com 1.10,2013-01-03 11:27:00,
2013-01-03 06:42:00,-8.0,-11.0,30.26,WSW,245,0.0,0.0,85,0.00,,,0.00,weatherlink.com 1.10,2013-01-03 11:42:00,
2013-01-03 06:57:00,-9.2,-13.0,30.26,WSW,244,0.0,0.0,85,0.00,,,0.00,weatherlink.com 1.10,2013-01-03 11:57:00,
2013-01-03 07:12:00,-10.0,-13.0,30.26,WSW,244,0.0,0.0,85,0.00,,,0.00,weatherlink.com 1.10,2013-01-03 12:12:00,
2013-01-03 07:27:00,-10.1,-13.0,30.25,NNW,327,0.0,0.0,86,0.00,,,0.00,weatherlink.com 1.10,2013-01-03 12:27:00,
2013-01-03 07:42:00,-10.6,-14.0,30.25,NNW,327,0.0,0.0,85,0.00,,,0.00,weatherlink.com 1.10,2013-01-03 12:42:00,
2013-01-03 07:57:00,-10.5,-14.0,30.24,NNW,327,0.0,0.0,86,0.00,,,0.00,weatherlink.com 1.10,2013-01-03 12:57:00,
2013-01-03 08:12:00,-8.9,-12.0,30.24,West,277,0.0,0.0,86,0.00,,,0.00,weatherlink.com 1.10,2013-01-03 13:12:00,
2013-01-03 08:27:00,-7.4,-11.0,30.23,West,272,0.0,1.0,86,0.00,,,0.00,weatherlink.com 1.10,2013-01-03 13:27:00,
2013-01-03 08:43:00,-6.2,-10.0,30.23,SW,221,0.0,1.0,84,0.00,,,0.00,weatherlink.com 1.10,2013-01-03 13:43:00,
2013-01-03 08:58:00,-5.3,-9.0,30.23,SW,222,0.0,1.0,82,0.00,,,0.00,weatherlink.com 1.10,2013-01-03 13:58:00,
2013-01-03 09:13:00,-3.5,-7.0,30.23,SW,222,0.0,1.0,83,0.00,,,0.00,weatherlink.com 1.10,2013-01-03 14:13:00,
2013-01-03 09:28:00,-2.3,-7.0,30.23,SSW,199,0.0,2.0,79,0.00,,,0.00,weatherlink.com 1.10,2013-01-03 14:28:00,
2013-01-03 09:43:00,-1.6,-7.0,30.24,SSW,206,1.0,3.0,76,0.00,,,0.00,weatherlink.com 1.10,2013-01-03 14:43:00,
2013-01-03 09:58:00,-1.2,-8.0,30.23,SW,214,3.0,5.0,74,0.00,,,0.00,weatherlink.com 1.10,2013-01-03 14:58:00,
2013-01-03 10:13:00,-0.4,-7.0,30.23,West,269,0.0,3.0,75,0.00,,,0.00,weatherlink.com 1.10,2013-01-03 15:13:00,
2013-01-03 10:28:00,0.9,-6.0,30.22,SSW,192,1.0,3.0,73,0.00,,,0.00,weatherlink.com 1.10,2013-01-03 15:28:00,
2013-01-03 10:43:00,2.1,-5.0,30.21,SSW,205,2.0,3.0,71,0.00,,,0.00,weatherlink.com 1.10,2013-01-03 15:43:00,
2013-01-03 10:58:00,2.1,-5.0,30.21,SW,218,1.0,6.0,71,0.00,,,0.00,weatherlink.com 1.10,2013-01-03 15:58:00,
2013-01-03 11:13:00,3.3,-4.0,30.20,SW,218,2.0,2.0,72,0.00,,,0.00,weatherlink.com 1.10,2013-01-03 16:13:00,
2013-01-03 11:28:00,3.8,-4.0,30.19,SW,229,0.0,5.0,70,0.00,,,0.00,weatherlink.com 1.10,2013-01-03 16:28:00,
2013-01-03 11:43:00,3.8,-4.0,30.18,WSW,240,0.0,7.0,69,0.00,,,0.00,weatherlink.com 1.10,2013-01-03 16:43:00,
2013-01-03 11:59:00,3.7,-4.0,30.17,SSW,206,6.0,7.0,69,0.00,,,0.00,weatherlink.com 1.10,2013-01-03 16:59:00,
2013-01-03 12:14:00,4.2,-4.0,30.15,WSW,238,3.0,4.0,70,0.00,,,0.00,weatherlink.com 1.10,2013-01-03 17:14:00,
2013-01-03 12:29:00,4.7,-3.0,30.15,SW,231,0.0,7.0,70,0.00,,,0.00,weatherlink.com 1.10,2013-01-03 17:29:00,
2013-01-03 12:44:00,5.4,-3.0,30.14,SW,234,0.0,4.0,69,0.00,,,0.00,weatherlink.com 1.10,2013-01-03 17:44:00,
2013-01-03 12:59:00,5.6,-4.0,30.12,SW,227,0.0,8.0,66,0.00,,,0.00,weatherlink.com 1.10,2013-01-03 17:59:00,
2013-01-03 13:14:00,6.0,-3.0,30.12,SW,223,1.0,6.0,67,0.00,,,0.00,weatherlink.com 1.10,2013-01-03 18:14:00,
2013-01-03 13:29:00,6.2,-3.0,30.11,SW,225,0.0,8.0,67,0.00,,,0.00,weatherlink.com 1.10,2013-01-03 18:29:00,
2013-01-03 13:44:00,6.2,-3.0,30.10,SW,225,0.0,4.0,67,0.00,,,0.00,weatherlink.com 1.10,2013-01-03 18:44:00,
2013-01-03 13:59:00,6.5,-2.0,30.11,WSW,238,1.0,4.0,67,0.00,,,0.00,weatherlink.com 1.10,2013-01-03 18:59:00,
2013-01-03 14:14:00,7.0,-2.0,30.09,SSW,209,0.0,3.0,67,0.00,,,0.00,weatherlink.com 1.10,2013-01-03 19:14:00,
2013-01-03 14:59:00,8.7,0.0,30.07,SW,219,0.0,2.0,67,0.00,,,0.00,weatherlink.com 1.10,2013-01-03 19:59:00,
2013-01-03 15:14:00,8.6,-1.0,30.07,SW,229,0.0,2.0,66,0.00,,,0.00,weatherlink.com 1.10,2013-01-03 20:14:00,
2013-01-03 15:30:00,8.1,-1.0,30.07,WSW,245,0.0,1.0,67,0.00,,,0.00,weatherlink.com 1.10,2013-01-03 20:30:00,
2013-01-03 15:45:00,7.8,-1.0,30.06,SW,229,1.0,2.0,68,0.00,,,0.00,weatherlink.com 1.10,2013-01-03 20:45:00,
2013-01-03 16:00:00,7.8,0.0,30.06,SW,229,0.0,1.0,69,0.00,,,0.00,weatherlink.com 1.10,2013-01-03 21:00:00,
2013-01-03 16:15:00,7.5,-1.0,30.05,SW,229,0.0,0.0,68,0.00,,,0.00,weatherlink.com 1.10,2013-01-03 21:15:00,
2013-01-03 16:30:00,7.4,-1.0,30.05,SW,216,0.0,1.0,68,0.00,,,0.00,weatherlink.com 1.10,2013-01-03 21:30:00,
2013-01-03 16:45:00,7.4,-1.0,30.05,SW,232,0.0,2.0,69,0.00,,,0.00,weatherlink.com 1.10,2013-01-03 21:45:00,
2013-01-03 17:00:00,7.1,-1.0,30.06,WSW,243,1.0,1.0,70,0.00,,,0.00,weatherlink.com 1.10,2013-01-03 22:00:00,
2013-01-03 17:15:00,6.9,-1.0,30.06,WSW,243,0.0,0.0,71,0.00,,,0.00,weatherlink.com 1.10,2013-01-03 22:15:00,
2013-01-03 17:30:00,7.4,-1.0,30.05,NNW,346,0.0,1.0,70,0.00,,,0.00,weatherlink.com 1.10,2013-01-03 22:30:00,
2013-01-03 17:45:00,7.6,0.0,30.05,NNW,344,0.0,1.0,72,0.00,,,0.00,weatherlink.com 1.10,2013-01-03 22:45:00,
2013-01-03 18:00:00,7.5,0.0,30.05,NW,325,0.0,1.0,72,0.00,,,0.00,weatherlink.com 1.10,2013-01-03 23:00:00,
2013-01-03 18:15:00,7.6,0.0,30.04,SW,226,0.0,1.0,72,0.00,,,0.00,weatherlink.com 1.10,2013-01-03 23:15:00,
2013-01-03 18:30:00,8.2,1.0,30.04,SW,219,0.0,1.0,71,0.00,,,0.00,weatherlink.com 1.10,2013-01-03 23:30:00,
2013-01-03 18:45:00,8.9,1.0,30.03,SW,222,0.0,3.0,70,0.00,,,0.00,weatherlink.com 1.10,2013-01-03 23:45:00,
2013-01-03 19:00:00,8.9,1.0,30.03,SSW,209,1.0,2.0,70,0.00,,,0.00,weatherlink.com 1.10,2013-01-04 00:00:00,
2013-01-03 19:15:00,9.2,1.0,30.03,SSW,213,0.0,2.0,69,0.00,,,0.00,weatherlink.com 1.10,2013-01-04 00:15:00,
2013-01-03 19:30:00,9.2,1.0,30.02,South,184,0.0,2.0,68,0.00,,,0.00,weatherlink.com 1.10,2013-01-04 00:30:00,
2013-01-03 19:46:00,9.4,1.0,30.02,WSW,239,0.0,4.0,69,0.00,,,0.00,weatherlink.com 1.10,2013-01-04 00:46:00,
2013-01-03 20:01:00,9.6,1.0,30.02,SW,221,0.0,4.0,68,0.00,,,0.00,weatherlink.com 1.10,2013-01-04 01:01:00,
2013-01-03 20:16:00,9.2,1.0,30.01,SW,224,0.0,2.0,68,0.00,,,0.00,weatherlink.com 1.10,2013-01-04 01:16:00,
2013-01-03 20:31:00,9.2,1.0,30.01,South,184,2.0,6.0,69,0.00,,,0.00,weatherlink.com 1.10,2013-01-04 01:31:00,
2013-01-03 20:46:00,9.9,2.0,30.00,SW,214,2.0,7.0,71,0.00,,,0.00,weatherlink.com 1.10,2013-01-04 01:46:00,
2013-01-03 21:01:00,10.7,4.0,30.00,SSW,202,3.0,7.0,73,0.00,,,0.00,weatherlink.com 1.10,2013-01-04 02:01:00,
2013-01-03 21:15:00,11.1,5.0,30.00,SW,225,0.0,9.0,75,0.00,,,0.00,weatherlink.com 1.10,2013-01-04 02:15:00,
2013-01-03 21:30:00,11.5,6.0,30.00,SSW,208,3.0,8.0,77,0.00,,,0.00,weatherlink.com 1.10,2013-01-04 02:30:00,
2013-01-03 21:45:00,11.5,6.0,29.99,SW,221,0.0,6.0,77,0.00,,,0.00,weatherlink.com 1.10,2013-01-04 02:45:00,
2013-01-03 22:00:00,11.8,6.0,29.99,WNW,286,0.0,7.0,78,0.00,,,0.00,weatherlink.com 1.10,2013-01-04 03:00:00,
2013-01-03 22:15:00,12.5,7.0,29.98,SW,216,1.0,7.0,77,0.00,,,0.00,weatherlink.com 1.10,2013-01-04 03:15:00,
2013-01-03 22:30:00,12.5,7.0,29.98,SSW,202,4.0,5.0,78,0.00,,,0.00,weatherlink.com 1.10,2013-01-04 03:30:00,
2013-01-03 22:45:00,12.9,7.0,29.97,SW,225,0.0,6.0,78,0.00,,,0.00,weatherlink.com 1.10,2013-01-04 03:45:00,
2013-01-03 23:00:00,13.1,7.0,29.96,SW,219,1.0,9.0,78,0.00,,,0.00,weatherlink.com 1.10,2013-01-04 04:00:00,
2013-01-03 23:16:00,14.1,8.0,29.96,South,180,4.0,9.0,78,0.00,,,0.00,weatherlink.com 1.10,2013-01-04 04:16:00,
2013-01-03 23:31:00,13.7,8.0,29.95,SSW,210,3.0,6.0,79,0.00,,,0.00,weatherlink.com 1.10,2013-01-04 04:31:00,
2013-01-03 23:46:00,14.0,9.0,29.95,SW,221,0.0,7.0,79,0.00,,,0.00,weatherlink.com 1.10,2013-01-04 04:46:00,